| time (UTC) | temp F | wind direction | speed knots | gust knots | rain 1hr in | rain 24hr in | rain mn in | humidity % | barometer mb |
| 20260508171518 | 42 | 233 | 3.5 | 7.0 | 0.00 | 0.77 | 0.01 | 88 | 1002.4 |
| 20260508170014 | 47 | 233 | 3.5 | 7.8 | 0.00 | 0.77 | 0.01 | 82 | 1002.5 |
| 20260508164514 | 47 | 270 | 2.6 | 6.1 | 0.00 | 0.77 | 0.01 | 84 | 1002.3 |
| 20260508163017 | 48 | 334 | 5.2 | 9.6 | 0.00 | 0.77 | 0.01 | 80 | 1002.2 |
| 20260508161516 | 48 | 351 | 1.7 | 7.8 | 0.00 | 0.77 | 0.01 | 82 | 1001.9 |
| 20260508160010 | 48 | 51 | 4.3 | 7.8 | 0.00 | 0.77 | 0.01 | 83 | 1001.8 |
| 20260508154532 | 48 | 19 | 3.5 | 8.7 | 0.00 | 0.77 | 0.01 | 85 | 1001.9 |
| 20260508153011 | 48 | 333 | 2.6 | 7.0 | 0.00 | 0.77 | 0.01 | 88 | 1001.9 |
| 20260508151511 | 46 | 150 | 0.9 | 4.3 | 0.00 | 0.77 | 0.01 | 90 | 1002.1 |
| 20260508150007 | 46 | 11 | 0.9 | 7.8 | 0.00 | 0.77 | 0.01 | 90 | 1002.3 |
| 20260508144506 | 47 | 254 | 2.6 | 5.2 | 0.00 | 0.77 | 0.01 | 90 | 1002.3 |
| 20260508143008 | 47 | 243 | 2.6 | 4.3 | 0.00 | 0.77 | 0.01 | 91 | 1002.3 |
| 20260508141505 | 46 | 263 | 1.7 | 4.3 | 0.00 | 0.77 | 0.01 | 92 | 1002.5 |
| 20260508140004 | 45 | 256 | 3.5 | 5.2 | 0.00 | 0.77 | 0.01 | 93 | 1002.8 |
| 20260508134504 | 46 | 256 | 2.6 | 6.1 | 0.00 | 0.77 | 0.01 | 93 | 1002.8 |
| 20260508133005 | 46 | 223 | 3.5 | 6.1 | 0.00 | 0.77 | 0.01 | 94 | 1002.6 |
| 20260508131612 | 48 | 287 | 0.9 | 4.3 | 0.00 | 0.77 | 0.01 | 95 | 1002.3 |
| 20260508130058 | 49 | 53 | 0.9 | 3.5 | 0.00 | 0.77 | 0.01 | 96 | 1002.0 |
| 20260508124602 | 46 | 20 | 2.6 | 6.1 | 0.00 | 0.77 | 0.01 | 96 | 1001.9 |
| 20260508123057 | 46 | 5 | 3.5 | 6.1 | 0.00 | 0.77 | 0.01 | 96 | 1002.0 |
| 20260508121555 | 45 | 264 | 0.9 | 1.7 | 0.00 | 0.77 | 0.01 | 95 | 1002.3 |
| 20260508120055 | 45 | 290 | 0.0 | 1.7 | 0.00 | 0.77 | 0.01 | 96 | 1002.2 |
| 20260508114555 | 44 | 31 | 0.0 | 2.6 | 0.00 | 0.77 | 0.01 | 96 | 1002.4 |
| 20260508113055 | 44 | 2 | 0.0 | 0.9 | 0.00 | 0.77 | 0.01 | 96 | 1002.5 |
| 20260508111556 | 44 | 342 | 0.0 | 1.7 | 0.00 | 0.77 | 0.01 | 97 | 1002.3 |
| 20260508110057 | 43 | 274 | 0.0 | 1.7 | 0.00 | 0.77 | 0.01 | 96 | 1002.8 |
| 20260508104552 | 42 | 340 | 0.0 | 0.0 | 0.00 | 0.77 | 0.01 | 97 | 1002.8 |
| 20260508103058 | 42 | 340 | 0.0 | 0.0 | 0.00 | 0.77 | 0.01 | 97 | 1002.7 |
| 20260508101550 | 41 | 340 | 0.0 | 0.0 | 0.00 | 0.77 | 0.01 | 97 | 1002.8 |
| 20260508100106 | 41 | 340 | 0.0 | 0.0 | 0.00 | 0.77 | 0.01 | 97 | 1002.4 |
| 20260508094602 | 40 | 283 | 0.0 | 0.0 | 0.00 | 0.77 | 0.01 | 97 | 1002.3 |
| 20260508093049 | 40 | 278 | 0.0 | 0.0 | 0.00 | 0.77 | 0.01 | 97 | 1002.4 |
| 20260508091549 | 40 | 278 | 0.0 | 1.7 | 0.00 | 0.77 | 0.01 | 96 | 1002.3 |
| 20260508090108 | 41 | 255 | 0.0 | 3.5 | 0.00 | 0.77 | 0.01 | 97 | 1002.0 |
| 20260508084547 | 41 | 262 | 0.0 | 1.7 | 0.00 | 0.77 | 0.01 | 97 | 1001.8 |
| 20260508083043 | 41 | 248 | 0.9 | 1.7 | 0.00 | 0.77 | 0.01 | 96 | 1001.6 |
| 20260508081559 | 41 | 121 | 0.0 | 0.9 | 0.00 | 0.77 | 0.01 | 96 | 1001.3 |
| 20260508080040 | 42 | 120 | 0.9 | 1.7 | 0.01 | 0.77 | 0.01 | 97 | 1001.5 |
| 20260508074540 | 42 | 56 | 0.0 | 1.7 | 0.01 | 0.77 | 0.01 | 96 | 1001.5 |
| 20260508073042 | 42 | 20 | 0.0 | 0.0 | 0.01 | 0.77 | 0.01 | 96 | 1001.8 |
| 20260508071535 | 43 | 32 | 0.0 | 0.0 | 0.01 | 0.77 | 0.01 | 96 | 1001.6 |
| 20260508070033 | 43 | 32 | 0.0 | 0.0 | 0.00 | 0.76 | 0.00 | 96 | 1001.9 |
| 20260508064535 | 43 | 32 | 0.0 | 0.0 | 0.00 | 0.76 | 0.00 | 96 | 1001.8 |
| 20260508063036 | 44 | 22 | 0.0 | 1.7 | 0.00 | 0.76 | 0.00 | 97 | 1001.7 |
| 20260508061536 | 44 | 60 | 0.9 | 2.6 | 0.00 | 0.76 | 0.00 | 97 | 1001.8 |
| 20260508060029 | 43 | 50 | 1.7 | 4.3 | 0.00 | 0.76 | 0.00 | 96 | 1001.8 |
| 20260508054534 | 43 | 34 | 4.3 | 6.1 | 0.00 | 0.76 | 0.00 | 96 | 1002.2 |
| 20260508053032 | 43 | 70 | 0.9 | 4.3 | 0.00 | 0.76 | 0.00 | 96 | 1002.5 |
| 20260508051525 | 43 | 37 | 1.7 | 4.3 | 0.00 | 0.76 | 0.00 | 96 | 1002.3 |
| 20260508050029 | 43 | 10 | 0.9 | 3.5 | 0.00 | 0.76 | 0.00 | 96 | 1002.3 |
| 20260508044523 | 43 | 9 | 1.7 | 5.2 | 0.00 | 0.76 | 0.00 | 96 | 1002.1 |
| 20260508043022 | 43 | 52 | 3.5 | 8.7 | 0.00 | 0.76 | 0.00 | 95 | 1002.0 |
| 20260508041521 | 44 | 252 | 0.0 | 1.7 | 0.00 | 0.76 | 0.00 | 96 | 1002.6 |
| 20260508040017 | 44 | 248 | 0.0 | 1.7 | 0.00 | 0.76 | 0.00 | 95 | 1002.5 |
| 20260508034516 | 45 | 222 | 0.0 | 1.7 | 0.00 | 0.76 | 0.00 | 95 | 1002.5 |
| 20260508033009 | 47 | 82 | 0.0 | 2.6 | 0.00 | 0.76 | 0.00 | 96 | 1002.3 |
| 20260508031506 | 48 | 231 | 0.0 | 0.0 | 0.00 | 0.76 | 0.00 | 95 | 1002.2 |
| 20260508030003 | 48 | 231 | 0.0 | 1.7 | 0.00 | 0.76 | 0.76 | 96 | 1002.1 |
| 20260508024502 | 48 | 86 | 0.0 | 4.3 | 0.00 | 0.76 | 0.76 | 96 | 1002.2 |
| 20260508023003 | 47 | 92 | 2.6 | 6.1 | 0.01 | 0.76 | 0.76 | 96 | 1002.1 |
| 20260508021501 | 46 | 309 | 0.0 | 1.7 | 0.02 | 0.76 | 0.76 | 95 | 1002.7 |
| 20260508020001 | 47 | 79 | 0.0 | 1.7 | 0.03 | 0.76 | 0.76 | 96 | 1002.5 |
| 20260508014600 | 47 | 183 | 0.0 | 1.7 | 0.03 | 0.76 | 0.76 | 96 | 1003.0 |
| 20260508013059 | 46 | 261 | 0.0 | 0.9 | 0.04 | 0.75 | 0.75 | 95 | 1002.8 |
| 20260508011606 | 47 | 260 | 0.0 | 0.9 | 0.04 | 0.74 | 0.74 | 95 | 1002.6 |
| 20260508010059 | 47 | 237 | 0.0 | 0.0 | 0.08 | 0.74 | 0.74 | 95 | 1002.6 |
| 20260508004602 | 47 | 247 | 0.0 | 0.0 | 0.10 | 0.73 | 0.73 | 95 | 1002.7 |
| 20260508003058 | 47 | 220 | 0.0 | 0.9 | 0.12 | 0.71 | 0.71 | 95 | 1002.7 |
| 20260508001559 | 46 | 164 | 2.6 | 7.0 | 0.13 | 0.70 | 0.70 | 95 | 1002.8 |
| 20260508000058 | 46 | 228 | 2.6 | 7.0 | 0.09 | 0.66 | 0.66 | 95 | 1002.9 |
| 20260507234558 | 45 | 200 | 7.0 | 13.0 | 0.06 | 0.63 | 0.63 | 95 | 1002.6 |
| 20260507233058 | 47 | 267 | 5.2 | 11.3 | 0.02 | 0.59 | 0.59 | 92 | 1002.3 |
| 20260507231549 | 48 | 218 | 6.1 | 12.2 | 0.00 | 0.56 | 0.56 | 91 | 1001.9 |
| 20260507230104 | 56 | 264 | 3.5 | 7.8 | 0.00 | 0.56 | 0.56 | 84 | 1001.3 |
| 20260507224551 | 56 | 231 | 4.3 | 13.0 | 0.00 | 0.56 | 0.56 | 83 | 1001.0 |
| 20260507223045 | 56 | 138 | 7.8 | 13.9 | 0.00 | 0.56 | 0.56 | 85 | 1000.9 |
| 20260507221546 | 56 | 111 | 6.1 | 13.0 | 0.00 | 0.56 | 0.56 | 84 | 1001.0 |
| 20260507220052 | 56 | 120 | 10.4 | 16.5 | 0.00 | 0.56 | 0.56 | 85 | 1000.7 |
| 20260507214544 | 55 | 123 | 11.3 | 20.9 | 0.00 | 0.56 | 0.56 | 85 | 1000.7 |
| 20260507213044 | 56 | 145 | 12.2 | 20.9 | 0.00 | 0.56 | 0.56 | 84 | 1000.6 |
| 20260507211544 | 56 | 141 | 12.2 | 21.7 | 0.00 | 0.56 | 0.56 | 85 | 1000.7 |
| 20260507210053 | 56 | 122 | 13.9 | 20.0 | 0.00 | 0.56 | 0.56 | 83 | 1000.7 |
| 20260507204541 | 56 | 110 | 11.3 | 20.0 | 0.02 | 0.56 | 0.56 | 85 | 1000.6 |
| 20260507203108 | 55 | 144 | 11.3 | 25.2 | 0.07 | 0.56 | 0.56 | 87 | 1000.7 |
| 20260507201540 | 55 | 117 | 15.6 | 31.3 | 0.13 | 0.56 | 0.56 | 87 | 1000.2 |
| 20260507200041 | 55 | 118 | 19.1 | 31.3 | 0.15 | 0.56 | 0.56 | 86 | 999.7 |
| 20260507194536 | 55 | 139 | 15.6 | 26.1 | 0.16 | 0.55 | 0.55 | 88 | 1000.9 |
| 20260507193035 | 55 | 161 | 11.3 | 16.5 | 0.14 | 0.49 | 0.49 | 88 | 1001.7 |
| 20260507191536 | 55 | 150 | 8.7 | 16.5 | 0.14 | 0.44 | 0.44 | 88 | 1002.8 |
| 20260507190030 | 55 | 152 | 8.7 | 23.5 | 0.18 | 0.42 | 0.42 | 88 | 1002.6 |
| 20260507184526 | 54 | 124 | 12.2 | 21.7 | 0.25 | 0.39 | 0.39 | 89 | 1003.1 |
| 20260507183024 | 54 | 140 | 11.3 | 20.0 | 0.32 | 0.35 | 0.35 | 90 | 1003.2 |
| 20260507181521 | 55 | 198 | 13.0 | 30.4 | 0.28 | 0.30 | 0.30 | 89 | 1003.5 |
| 20260507180022 | 55 | 204 | 14.8 | 26.1 | 0.24 | 0.24 | 0.24 | 90 | 1003.7 |
| 20260507174522 | 55 | 250 | 10.4 | 24.3 | 0.13 | 0.13 | 0.13 | 90 | 1004.1 |
| 20260507173018 | 56 | 209 | 17.4 | 29.5 | 0.03 | 0.03 | 0.03 | 87 | 1003.3 |